Starlink 31810

operational
NORAD ID: 59799 Int'l Des: 2024-093 Owner: SPXS Country: US Constellation: starlink
LEOCIRCULAR

关于 Starlink 31810

正在加载描述...

实时位置

正在加载3D地球...

即将过境

高度历史

Altitude vs Time

uPlot chart will show altitude changes over time

两行轨道根数

1 59799U 24093T 25305.79667802 -.00004435 00000-0 -15168-3 0 9999
2 59799 43.0087 211.3568 0001755 207.5444 152.5315 15.27589814 83130
Epoch: Nov 1, 2025 • Age: 31 hours

当前状态

高度 495.1 km
速度 7.62 km/s
星下点 -42.11°S, 25.04°E
发射日期 May 18, 2024
运行时间 1.4 years
类型 internet

技术详情

分类 Payload
质量 730.00 kg
干质量 700.00 kg
总质量 730.00 kg
长度 0.30 m
直径 4.10 m
跨度 29.00 m
形状 Box + pan
制造商 SPXS
平台类型 Starlink V2M
阶段状态 In Orbit
所有者/国家 SPXS/US

大型星座

Loading constellations...